Change the Weather History Date:

Monday, November 12, 2012

  Actual Average Record
Temperature  
Mean Temperature 52 °F -  
Max Temperature 71 °F 38 °F 71 °F (2012)
Min Temperature 32 °F 23 °F 14 °F (2004)
Degree Days  
Heating Degree Days 14    
Growing Degree Days 2 (Base 50)    
Moisture  
Dew Point 38 °F    
Average Humidity 58    
Maximum Humidity 93    
Minimum Humidity 23    
Precipitation  
Precipitation 0.00 in - - ()
Sea Level Pressure  
Sea Level Pressure 30.21 in    
Wind  
Wind Speed 6 mph ()    
Max Wind Speed 17 mph    
Max Gust Speed 26 mph    
Visibility 9.2 miles    
Events      
Averages and records for this station are not official NWS values.
T = Trace of Precipitation, MM = Missing Value Source: Averaged Metar Reports

Daily Weather History Graph

Daily Weather History Graph

Search for Another Location

Airport or City:

Trip Planner

Search our weather history database for the weather conditions in past years. The results will help you decide how hot, cold, wet, or windy it might be!

Date:

Astronomy

Nov. 12, 2012 Rise Set
Actual Time 6:42 AM EST 4:19 PM EST
Civil Twilight 6:10 AM EST 4:51 PM EST
Nautical Twilight 5:34 AM EST 5:26 PM EST
Astronomical Twilight 4:59 AM EST 6:01 PM EST
Moon 5:01 AM EST (11/12) 3:23 PM EST (11/12)
Length of Visible Light 10h 40m
Length of Day
9h 37m
Waning Crescent, 2% of the Moon is Illuminated
Nov 12
Waning Crescent
Nov 13
New
Nov 20
First Quarter
Nov 28
Full
Dec 6
Last Quarter

Hourly Weather History & Observations

Time (EST) Temp. Windchill Dew Point Humidity Pressure Visibility Wind Dir Wind Speed Gust Speed Precip Events Conditions
12:00 AM 33.8 °F 30.8 °F 32.0 °F 93% 30.33 in 9.0 mi East 3.5 mph - N/A   Clear
1:00 AM 36 °F - 34 °F 91% 30.32 in 10 mi ENE 3.5 mph - -  
1:00 AM 37.4 °F - 33.8 °F 87% 30.32 in 9.0 mi East 2.3 mph - N/A   Clear
2:00 AM 37.4 °F 33.8 °F 33.8 °F 87% 30.32 in 9.0 mi East 4.6 mph - N/A   Clear
3:00 AM 35.6 °F 31.7 °F 32.0 °F 87% 30.31 in 9.0 mi ESE 4.6 mph - N/A   Clear
4:00 AM 35 °F - 33 °F 92% 30.31 in 10 mi NE 4.6 mph - -  
4:00 AM 35.6 °F 31.7 °F 33.8 °F 93% 30.31 in 9.0 mi NE 4.6 mph - N/A   Clear
5:00 AM 39.2 °F 37.0 °F 35.6 °F 87% 30.31 in 9.0 mi East 3.5 mph - N/A   Clear
6:00 AM 39.2 °F 35.0 °F 35.6 °F 87% 30.30 in 9.0 mi East 5.8 mph - N/A   Clear
7:00 AM 41 °F - 36 °F 77% 30.30 in 10 mi ESE 6.9 mph - -  
7:00 AM 41.0 °F 36.4 °F 35.6 °F 81% 30.30 in 9.0 mi ESE 6.9 mph - N/A   Clear
8:00 AM 41.0 °F 36.4 °F 37.4 °F 87% 30.29 in 9.0 mi East 6.9 mph - N/A   Clear
9:00 AM 57.2 °F - 39.2 °F 51% 30.27 in 9.0 mi Calm Calm - N/A   Clear
10:00 AM 65 °F - 36 °F 23% 30.25 in 10 mi SSW 6.9 mph - -  
10:00 AM 66.2 °F - 35.6 °F 32% 30.25 in 9.0 mi South 5.8 mph - N/A   Clear
11:00 AM 69.8 °F - 37.4 °F 31% 30.24 in 9.0 mi SSW 12.7 mph 21.9 mph N/A   Clear
12:00 PM 71.6 °F - 39.2 °F 31% 30.22 in 9.0 mi SSW 13.8 mph - N/A   Clear
1:00 PM 68 °F - 39 °F 24% 30.20 in 10 mi South 11.5 mph - -  
1:00 PM 68.0 °F - 39.2 °F 35% 30.19 in 9.0 mi SSW 10.4 mph 20.7 mph N/A   Clear
2:00 PM 69.8 °F - 39.2 °F 33% 30.18 in 9.0 mi SSW 17.3 mph 25.3 mph N/A   Clear
3:00 PM 68.0 °F - 39.2 °F 35% 30.17 in 9.0 mi South 12.7 mph 23.0 mph N/A   Clear
4:00 PM 64 °F - 40 °F 29% 30.17 in 10 mi South 10.4 mph - -  
4:00 PM 64.4 °F - 39.2 °F 40% 30.17 in 9.0 mi South 12.7 mph - N/A   Clear
5:00 PM 64.4 °F - 41.0 °F 42% 30.14 in 9.0 mi South 17.3 mph 25.3 mph N/A   Partly Cloudy
6:00 PM 62.6 °F - 41.0 °F 45% 30.14 in 9.0 mi South 13.8 mph 23.0 mph N/A   Partly Cloudy
7:00 PM 61 °F - 40 °F 35% 30.12 in 10 mi South 10.4 mph - -  
7:00 PM 60.8 °F - 41.0 °F 48% 30.12 in 9.0 mi South 11.5 mph 17.3 mph N/A   Clear
8:00 PM 60.8 °F - 39.2 °F 45% 30.09 in 9.0 mi South 13.8 mph 24.2 mph N/A   Mostly Cloudy
9:00 PM 60.8 °F - 41.0 °F 48% 30.06 in 9.0 mi SSW 12.7 mph 24.2 mph N/A   Mostly Cloudy
10:00 PM 59 °F - 46 °F 51% 30.05 in 10 mi South 10.4 mph - -   Overcast
10:00 PM 59.0 °F - 44.6 °F 59% 30.05 in 9.0 mi South 9.2 mph 26.5 mph N/A   Overcast
11:00 PM 59.0 °F - 46.4 °F 63% 30.04 in 9.0 mi SSW 10.4 mph 24.2 mph N/A   Overcast